Location: *
(54.2925°N, 1.1894°W)
Time: 16:28:39
(UTC+00:00)

Daily predictions for brighter satellites

Satellite Brightness Start Highest point End
(mag) Time Altitude Azimuth Time Altitude Azimuth Time Altitude Azimuth
Cosmos 2322 Rocket 4.2 19:49:13 10° NNW 19:53:06 18° NNE 19:56:57 10° ENE
Aureole 2 4.3 19:52:36 10° S 19:55:27 46° ESE 19:58:21 10° NE
Resurs 01 Rocket 1.7 19:52:19 10° SSE 19:56:40 64° ENE 20:01:04 10° N
USA 267 3.3 19:55:16 10° ENE 20:01:50 70° SSE 20:08:22 10° SW
ERS-1 Rocket 4.2 19:59:21 10° ESE 20:03:32 27° ENE 20:07:44 10° N
Cosmos 1378 Rocket 4.1 20:00:10 10° N 20:04:24 43° ENE 20:08:38 10° SE
Cosmos 1869 Rocket 4.0 20:02:23 10° SSW 20:06:42 66° WNW 20:11:03 10° N
SL-24 R/B 4.2 20:04:32 10° SSE 20:09:04 65° ENE 20:13:22 10° N
Cosmos 1656 3.8 20:04:31 10° NNW 20:10:15 73° NE 20:15:53 10° SE
Cosmos 1733 Rocket 3.2 20:06:37 10° S 20:10:47 50° E 20:15:00 10° NNE
Cosmos 1674 Rocket 3.6 20:06:35 10° N 20:10:57 65° ENE 20:15:14 10° SSE
RESURS DK-1 3.9 20:07:45 10° WSW 20:11:43 41° NW 20:15:43 10° NNE
Cosmos 1515 3.7 20:07:57 10° N 20:11:47 69° ENE 20:15:35 10° SSE
Cosmos 2098 Rocket 3.8 20:09:22 10° N 20:13:30 42° ENE 20:18:38 10° SE
ASTEX 1 3.9 20:08:48 10° NNE 20:13:30 41° E 20:18:09 10° SSE
MetOp-B 4.4 20:09:52 10° SE 20:15:05 57° ENE 20:20:21 10° N
Cosmos 1833 Rocket 4.0 20:13:16 10° SE 20:17:07 19° E 20:20:57 10° ENE
Cosmos 1900 4.5 20:12:25 10° NW 20:17:30 73° NE 20:22:15 11° SE
Cosmos 2278 4.1 20:13:00 10° NNW 20:18:33 52° NE 20:23:50 11° SE
GENESIS II 4.5 20:14:44 10° SSW 20:18:38 48° SE 20:22:36 10° NE
Meteor 1-11 Rocket 4.3 20:13:20 10° SSE 20:18:51 42° E 20:24:26 10° NNE
Cosmos 2082 Rocket 3.8 20:16:39 10° SE 20:19:37 15° E 20:22:37 10° ENE
BREEZE-M DEB (TANK) 3.4 20:18:24 10° WSW 20:20:18 22° S 20:23:22 11° SE
Cosmos 158 Rocket 4.1 20:19:29 10° NNW 20:24:47 71° ENE 20:30:00 11° SE
SL-16 R/B 3.8 20:20:48 10° NNW 20:25:24 24° NNE 20:29:57 10° E
Cosmos 1697 Rocket 2.9 20:20:08 10° NNW 20:25:48 63° NE 20:30:58 12° SE
Terra 3.3 20:22:16 10° ESE 20:25:57 23° ENE 20:29:39 10° N
USA 186 4.3 20:24:36 10° SW 20:26:15 15° W 20:27:59 10° NW
ATLAS 2AS CENTAUR R/B 4.1 20:19:34 10° W 20:27:22 48° NNW 20:34:56 10° ENE
Cosmos 1553 Rocket 4.0 20:23:14 10° S 20:29:31 80° E 20:35:56 10° NNE
NOSS 3-1 (C) 4.2 20:23:00 10° NW 20:30:01 69° NE 20:37:40 12° ESE
Cosmos 1937 Rocket 4.4 20:26:04 10° SSE 20:30:34 29° E 20:35:05 10° NE
Spot 2 Rocket 3.5 20:25:50 10° SSE 20:30:56 80° ENE 20:36:02 10° NNW
Cosmos 1975 Rocket 3.9 20:28:08 10° N 20:32:15 36° ENE 20:35:36 14° SE
Cosmos 1666 4.2 20:31:55 14° ESE 20:33:48 20° E 20:36:37 10° NE
Meteor 1-5 Rocket 4.3 20:28:35 10° S 20:34:08 55° E 20:39:32 10° NNE
Lacrosse 4 Rocket 4.0 20:32:53 10° NNW 20:35:02 13° N 20:37:11 10° NE
CZ-2C R/B 3.3 20:30:46 10° NNE 20:35:32 34° E 20:40:22 10° SSE
SL-24 R/B 4.5 20:31:40 10° S 20:36:29 82° W 20:41:32 10° N
DMSP B5D2-2 4.2 20:34:29 10° NNE 20:39:41 56° E 20:44:51 10° S
Cosmos 2360 Rocket 4.2 20:38:35 10° NNW 20:42:37 19° NNE 20:46:38 10° ENE
Cosmos 44 Rocket 4.5 20:39:07 10° WNW 20:43:28 35° WSW 20:47:43 10° S
NOSS 6 (F) 4.5 20:41:04 10° SW 20:44:18 83° SE 20:47:14 10° NE
SPOT 1/Viking Rocket 3.9 20:40:17 14° SE 20:44:38 52° ENE 20:49:42 10° N
Cosmos 1709 Rocket 4.0 20:39:04 10° N 20:45:11 70° ENE 20:51:03 11° SSE
GP-B 3.1 20:41:40 10° N 20:46:07 66° E 20:50:31 10° S
Cosmos 1980 Rocket 2.5 20:43:38 10° NNW 20:49:12 56° NE 20:53:29 17° SE
SPOT 5 3.2 20:48:36 17° SE 20:51:30 41° ENE 20:55:38 10° N
USA 32 4.4 20:48:15 10° N 20:53:21 48° ENE 20:57:06 18° SE
SL-08 ROCKET BODY 4.4 20:47:51 10° NNW 20:53:48 86° W 20:59:38 10° S
Aureole 3 Rocket 2.2 20:51:05 10° S 20:54:32 70° E 20:57:35 10° NNE
S3M 4.0 20:48:45 10° S 20:55:03 87° W 21:01:18 10° N
Meteor 1-23 Rocket 4.2 20:49:48 10° NNW 20:55:36 81° ENE 21:00:37 14° SSE
COSMOS 2406 3.2 20:51:50 10° SSW 20:57:29 68° ESE 21:03:11 10° NE
CARTOSAT-1 4.1 20:55:45 19° SE 20:58:28 44° ENE 21:02:35 10° N
IGS 5A 3.6 21:00:49 20° SE 21:03:30 60° ENE 21:07:37 10° N
Cosmos 2315 Rocket 4.1 20:59:00 10° S 21:05:13 59° E 21:11:26 10° NNE
Iridium 2 3.6 21:02:56 13° S 21:06:18 80° E 21:10:05 10° N
Cosmos 2369 3.9 21:01:06 10° NW 21:06:45 70° WSW 21:11:06 17° SSE
Abrixas rocket 3.1 21:04:12 10° WSW 21:06:53 27° S 21:07:11 26° SSE
Cosmos 1500 3.3 21:06:53 10° SSW 21:10:44 81° WNW 21:14:36 10° N
Cosmos 1908 Rocket 3.5 21:06:24 10° S 21:10:53 81° E 21:15:22 10° NNE
CZ-2C R/B 4.1 21:06:58 10° SSW 21:11:24 39° W 21:15:59 10° NNW
Cosmos 1346 Rocket 3.1 21:11:23 25° SSE 21:13:12 43° E 21:16:53 10° NNE
Cosmos 1378 4.5 21:12:29 10° N 21:15:40 26° ENE 21:16:52 22° E
SJ 16-02 1.4 21:12:44 10° S 21:17:05 60° ESE 21:21:28 10° NNE
MTI 3.9 21:14:07 10° NNE 21:17:18 75° WNW 21:20:09 12° SSW
ADEOS Rocket 3.5 21:12:25 10° NNE 21:18:13 63° WNW 21:24:35 10° SSW
Cosmos 1536 2.9 21:14:44 10° SSW 21:18:49 83° WNW 21:22:56 10° N
Okean 2 Rocket 3.9 21:19:47 26° SE 21:21:14 33° E 21:25:12 10° NNE
Cosmos 1536 Rocket 4.4 21:17:34 10° N 21:21:41 36° ENE 21:23:30 25° ESE
Cosmos 1048 Rocket 4.2 21:16:53 10° NNW 21:21:59 60° ENE 21:24:52 25° SE
Cosmos 1898 Rocket 3.5 21:21:18 10° SSW 21:26:34 89° SE 21:31:51 10° NNE
USA 229 DEB 3.9 21:20:55 10° NW 21:28:03 73° SW 21:32:59 23° SSE
USA 229 3.9 21:21:01 10° NW 21:28:09 73° SW 21:33:05 23° SSE
Thor Agena Rocket 3.9 21:23:47 10° NNE 21:28:47 47° E 21:31:35 24° SSE
Cosmos 1340 2.7 21:27:34 31° SSE 21:29:06 56° E 21:32:48 10° NNE
Cosmos 1025 Rocket 3.9 21:25:18 10° N 21:29:20 35° ENE 21:30:54 26° ESE
H-2A R/B 4.4 21:26:10 10° SW 21:29:35 18° W 21:33:01 10° NW
NOSS 3-1 (A) 4.0 21:24:12 10° NW 21:31:25 87° NE 21:37:05 23° SE
Landsat 7 4.0 21:29:38 21° S 21:32:49 70° WSW 21:37:36 10° NNW
Sich 1 Rocket 3.6 21:30:07 23° S 21:32:52 68° E 21:37:20 10° NNE
Resurs 01 Rocket 4.0 21:30:20 10° SW 21:33:35 20° W 21:36:51 10° NW
Cosmos 1241 Rocket 4.5 21:27:07 10° SW 21:33:41 86° SE 21:40:10 10° NE
Cosmos 2333 Rocket 4.4 21:33:41 10° NNW 21:37:45 20° NNE 21:41:48 10° ENE
Cosmos 2322 Rocket 2.9 21:33:14 10° NNW 21:38:39 44° NE 21:41:57 22° ESE
Cosmos 1867 3.6 21:33:22 10° NW 21:38:53 75° NE 21:41:52 28° ESE
EO 1 Del DPAF 3.1 21:35:54 10° NNE 21:39:43 76° ESE 21:41:30 30° S
Cosmos 858 Rocket 4.5 21:34:25 10° SSW 21:39:43 89° ESE 21:45:03 10° NNE
Cosmos 2360 4.4 21:36:12 10° NW 21:41:52 66° WSW 21:45:05 26° SSE
ERS-1 Rocket 3.3 21:38:40 21° S 21:42:01 62° WSW 21:47:01 10° NNW
BREEZE-M DEB (TANK) 4.1 21:30:51 10° W 21:42:57 48° SSW 21:44:35 32° SSE
BREEZE-M DEB (TANK) 3.6 21:39:22 10° WSW 21:43:41 70° S 21:55:21 10° E
USA 267 3.4 21:38:25 10° ENE 21:44:58 75° N 21:51:30 10° W
Cosmos 1782 Rocket 3.7 21:46:29 18° SSW 21:49:43 75° WNW 21:54:09 10° N
Cosmos 1125 Rocket 4.3 21:49:00 29° ESE 21:49:48 31° ESE 21:54:23 10° NE
CZ-4C R/B 3.8 21:52:48 17° E 21:52:48 17° E 21:55:27 10° ENE
Okean 2 3.4 21:48:37 10° NNW 21:52:45 75° W 21:54:19 36° S
Cosmos 1743 2.6 21:52:42 47° SSE 21:53:35 65° E 21:57:23 10° NNE
SL-27 R/B 3.6 21:57:57 30° E 21:57:57 30° E 22:00:30 10° NE
Cosmos 494 Rocket 4.1 21:53:58 10° NNW 21:59:06 64° ENE 22:01:10 35° SE
Cosmos 1833 Rocket 2.6 21:54:37 10° SSW 22:00:17 86° ESE 22:05:58 10° NNE
Cosmos 2082 Rocket 2.1 21:58:17 17° SSW 22:02:42 70° ESE 22:08:22 10° NE
Terra 1.9 22:01:09 33° S 22:03:17 70° WSW 22:08:04 10° NNW
Cosmos 2151 Rocket 3.8 22:03:49 43° SE 22:04:51 54° E 22:09:13 10° NNE
MOS 1 Rocket 3.6 22:02:42 10° NNE 22:08:06 78° ESE 22:10:54 30° S
Cosmos 1666 3.6 22:06:47 20° SW 22:09:07 47° WNW 22:12:51 10° N
Cosmos 1697 Rocket 4.0 22:04:32 10° NW 22:09:28 31° WSW 22:12:42 18° SSW
Cosmos 1975 Rocket 4.5 22:06:06 10° NNW 22:10:05 33° W 22:12:46 18° SW
SL-16 R/B 2.3 22:04:48 10° NNW 22:10:30 72° NE 22:12:55 36° SE
Cosmos 1937 Rocket 4.1 22:06:58 10° SW 22:12:14 59° WNW 22:17:32 10° NNE
STPSAT 2 (USA 217) 4.5 22:11:27 38° SSW 22:13:05 72° ESE 22:17:35 10° NE
Lacrosse 4 Rocket 3.2 22:11:36 10° NNW 22:15:09 25° NNE 22:17:26 16° ENE
CZ-2C R/B 3.5 22:10:58 10° N 22:16:01 49° WNW 22:21:09 10° SW
Cosmos 1842 3.2 22:15:55 10° NNW 22:19:51 81° W 22:20:30 60° S
ATLAS 2AS CENTAUR R/B 4.0 22:12:20 10° WNW 22:19:59 44° N 22:27:15 10° E
NOSS 3-1 (C) 4.5 22:13:56 10° NW 22:20:59 50° SW 22:25:03 29° S
Cosmos 405 3.0 22:17:28 10° NNW 22:21:02 70° W 22:21:20 65° SW
Cosmos 372 Rocket 3.9 22:20:40 32° SSW 22:23:08 80° ESE 22:28:25 10° NNE
BREEZE M DEB (TANK) 3.0 22:23:44 46° S 22:24:01 47° SSE 22:32:35 10° E
Meteor 2-15 Rocket 4.4 22:22:41 37° SSE 22:25:08 66° E 22:31:13 10° NNE
Cosmos 2154 Rocket 3.9 22:19:52 10° NNW 22:26:12 88° W 22:28:54 37° S
Okean 1 Rocket 3.5 22:26:45 41° E 22:26:55 41° E 22:31:02 10° NNE
Cosmos 1975 2.8 22:26:24 51° SSW 22:27:19 77° W 22:31:21 10° N
Cosmos 2360 Rocket 2.8 22:22:29 10° NNW 22:27:59 50° NE 22:30:31 30° ESE
Cosmos 2251 Rocket 4.5 22:22:58 10° NNW 22:28:01 40° NE 22:30:17 27° E
Meteor 1-21 4.3 22:22:22 10° NNW 22:28:02 75° W 22:30:15 38° S
IRAS Rocket 4.2 22:26:11 40° SSE 22:28:19 90° ENE 22:33:58 10° NNW
SPOT 5 4.1 22:27:51 21° SW 22:29:46 29° W 22:33:35 10° NNW
COSMOS 2428 4.3 22:25:02 10° NNW 22:29:59 29° NE 22:34:13 13° E
Cosmos 1707 3.1 22:27:56 10° N 22:31:42 47° ENE 22:31:50 47° E
Cosmos 1980 Rocket 3.2 22:27:57 10° NW 22:33:00 35° WSW 22:35:15 25° SSW
Nadezhda 1 Rocket 3.9 22:30:24 36° S 22:33:08 80° E 22:39:16 10° NNE
Cosmos 2219 Rocket 3.8 22:28:55 10° NNW 22:33:47 29° NE 22:37:52 13° E
Helios 1A 2.9 22:35:02 60° ESE 22:35:36 70° ENE 22:39:48 10° NNW
Cosmos 2150 Rocket 4.1 22:32:20 23° SW 22:35:37 75° WNW 22:40:53 10° NNE
Cosmos 1300 Rocket 3.5 22:35:20 50° SSW 22:36:27 80° WNW 22:40:50 10° N
Meteor 1-12 Rocket 4.3 22:36:35 42° SSE 22:38:35 68° E 22:44:24 10° NNE
Spot 4 3.8 22:37:33 53° SSE 22:38:41 83° ENE 22:43:32 10° NNW
Meteor 2-15 4.4 22:35:48 33° SSW 22:38:46 87° W 22:44:57 10° NNE
Cosmos 2298 Rocket 4.3 22:35:57 17° SW 22:40:01 66° WNW 22:45:21 10° NNE
Mayak -1.1 22:38:13 10° NNE 22:42:19 54° E 22:42:19 54° E
Cosmos 1544 3.7 22:44:35 45° ENE 22:44:35 45° ENE 22:47:31 10° NNE
Cosmos 1378 4.3 22:47:41 10° NNW 22:51:07 34° W 22:51:30 33° WSW
deb Kosmos-1763 4.4 22:52:17 57° NE 22:52:17 57° NE 22:55:19 10° NNE
Cosmos 389 Rocket 3.8 22:49:14 10° N 22:52:15 31° ENE 22:52:15 31° ENE
Cosmos 1441 Rocket 4.1 22:53:54 39° ENE 22:53:54 39° ENE 22:57:06 10° NNE
Landsat 4 4.2 22:52:07 10° N 22:55:50 54° WNW 22:56:26 48° WSW
SJ 16-02 3.5 22:52:21 10° WSW 22:56:02 25° NW 22:59:45 10° N
Cosmos 2237 Rocket 4.2 22:54:29 10° NNW 22:59:03 24° NNE 23:03:36 10° E
Okean 1-7 Rocket 3.6 22:54:45 10° N 22:59:09 63° ENE 22:59:31 60° ESE
Okean 2 Rocket 4.4 22:57:07 22° WSW 22:59:18 35° WNW 23:03:24 10° N
Cosmos 2322 4.2 22:54:03 10° NNW 22:59:41 54° NE 23:02:01 33° ESE
Cosmos 1892 Rocket 3.6 22:59:58 10° N 23:04:26 67° ENE 23:04:49 63° ESE
Cosmos 1674 4.1 23:01:29 10° N 23:04:52 29° ENE 23:04:52 29° ENE
Cosmos 1025 Rocket 4.2 23:03:00 10° NNW 23:06:55 33° W 23:07:47 30° WSW
Cosmos 2341 Rocket 4.1 23:02:32 10° NNW 23:08:55 74° W 23:11:05 43° S
ERS-2 3.7 23:09:16 25° ENE 23:09:26 25° ENE 23:12:29 10° N
Cosmos 2366 rocket 4.0 23:03:53 10° N 23:10:10 73° ENE 23:12:06 46° SSE
JB-3 4.5 23:09:31 10° NNE 23:12:58 63° ENE 23:12:58 63° ENE
Meteor 1-15 Rocket 4.4 23:13:54 49° SE 23:14:51 55° E 23:20:23 10° NNE
APEX 4.3 23:13:27 10° NW 23:18:34 42° WSW 23:18:51 42° WSW
YAOGAN 11 4.1 23:18:55 71° SSW 23:19:18 77° WSW 23:23:55 10° NNW
Cosmos 2322 Rocket 2.6 23:17:25 10° NW 23:22:48 47° WSW 23:23:45 43° SW
Aureole 1 Rocket 4.4 23:15:04 10° NNW 23:23:22 80° ENE 23:26:09 41° SE
Cosmos 2333 Rocket 2.9 23:17:54 10° NNW 23:23:25 49° NE 23:25:58 29° ESE
ALOS 2 2.4 23:24:30 79° SSW 23:24:42 83° WSW 23:29:08 10° NNW
COSMOS 2487 3.9 23:27:20 31° NE 23:27:20 31° NE 23:29:25 10° NNE
Cosmos 1437 Rocket 3.8 23:23:10 10° N 23:26:58 36° ENE 23:27:05 36° ENE
USA 267 3.4 23:21:19 10° E 23:27:51 76° N 23:34:24 10° WNW
Cosmos 1125 Rocket 4.1 23:29:14 30° WSW 23:31:40 54° WNW 23:36:51 10° NNE
SL-27 R/B 4.2 23:31:30 26° W 23:32:23 29° NW 23:35:37 10° N
COSMOS 2455 3.1 23:27:56 10° NW 23:33:58 65° NE 23:36:41 33° ESE
SL-8 Rocket 4.2 23:31:26 10° NNW 23:37:41 65° W 23:39:29 46° SSW
Spot 1 3.9 23:38:43 84° NE 23:38:43 84° NE 23:42:47 10° NNW
CZ-4C R/B 2.1 23:37:57 57° SSW 23:39:02 74° SE 23:45:23 10° NE
Cosmos 405 Rocket 3.7 23:40:52 38° ENE 23:40:52 38° ENE 23:43:42 10° NNE
Cosmos 2181 Rocket 3.9 23:38:53 49° SSW 23:40:40 83° W 23:46:53 10° N
Meteor 1-29 4.3 23:38:10 10° NNE 23:40:18 33° NE 23:40:18 33° NE
Terra 4.3 23:40:08 10° WSW 23:41:56 12° W 23:43:45 10° WNW
Cosmos 864 Rocket 4.4 23:38:13 10° NNW 23:44:21 74° W 23:45:55 51° SSW
Cosmos 2082 Rocket 3.7 23:42:09 10° WSW 23:47:16 34° NW 23:52:26 10° NNE
Meteor 1-24 Rocket 3.5 23:48:25 10° NNW 23:53:46 82° ENE 23:54:42 62° SSE
SL-16 R/B 3.4 23:49:30 10° NW 23:54:10 27° WSW 23:54:46 26° WSW
Helios 1B rocket 2.4 23:50:03 10° NNE 23:54:02 81° NNW 23:54:02 81° NNW
Lacrosse 4 Rocket 1.6 23:50:06 10° NW 23:53:43 63° WNW 23:53:43 63° WNW
